{"data":{"norad_id":43016,"intl_designator":"2017-073D","name":"MAKERSAT 0","alt_names":[],"object_type":"PAYLOAD","status":"ACTIVE","operator":null,"country":"US","launch_date":"2017-11-18","launch_site_code":"AFWTR","launch_vehicle":null,"mission":null,"orbit_class":"UNKNOWN","rcs_meters":null,"size_class":null,"mass_kg":null,"dimensions":null,"purposes":["tech_demo"],"wikipedia_slug":null,"has_3d_model":false,"image_url":null,"decayed_at":null,"tle_current":{"epoch":"2026-05-24T22:07:26.913792Z","epoch_age_seconds":84983,"freshness":"FRESH","line1":"1 43016U 17073D   26144.92183928  .00022579  00000+0  62683-3 0  9993","line2":"2 43016  97.4663  27.2720 0109161 356.9350   3.1208 15.31025443462903","mean_motion":15.31025443,"eccentricity":0.0109161,"inclination_deg":97.4663,"raan_deg":27.272,"arg_perigee_deg":356.935,"mean_anomaly_deg":3.1208,"bstar":0.00062683,"rev_number":46290,"period_min":94.05460938509,"perigee_km":397.96656826604,"apogee_km":547.53653732841,"semimajor_km":6850.8885527972,"source":"CELESTRAK","updated_at":"2026-05-25T13:38:25.529994Z"}}}